SCP
0 0 0 0 0 0 0 0 0 0 0 0 0 0 0 0 0 0 0 0 0 0 0 0 0 0 0 0 0 0 0 0 0 0 0 0 0 0 0 0 0 0 0
0 0 0 0 0 0 0 0 0 0 0 0 0 0 0 0 0 0 0 0 0 0 0 0 0 0 0 0 0 0 0 0 0 0 0 0 0 0 0 0 0 0 0
0 0 0 0 0 0 0 0 0 0 0 0 0 0 0 0 0 0 0 0 0 0 0 0 0 0 0 0 0 0 0 0 0 0 0 0 0 0 0 0 0 0 0
0 0 0 0 0 0 0 0 0 0 0 0 0 0 0 0 0 0 0 0 0 0 0 0 0 0 0 0 0 0 0 0 0 0 0 0 0 0 0 0 0 0 0
0 0 0 0 0 0 0 0 0 0 0 0 0 0 0 0 0 0 0 0 0 0 0 0 0 0 0 0 0 0 0 0 0 0 0 0 0 0 0 0 0 0 0
0 0 0 0 0 0 0 0 0 0 0 0 0 0 0 0 0 0 0 0 0 0 0 0 0 0 0 0 0 0 0 0 0 0 0 0 0 0 0 0 0 0 0
0 0 0 0 0 0 0 0 0 0 0 0 0 0 0 0 0 0 0 0 0 0 0 0 0 0 0 0 0 0 0 0 0 0 0 0 0 0 0 0 0 0 0
0 0 0 0 0 0 0 0 0 0 0 0 0 0 0 0 0 0 0 0 0 0 0 0 0 0 0 0 0 0 0 0 0 0 0 0 0 0 0 0 0 0 0
0 0 0 0 0 0 0 0 0 0 0 0 0 0 0 0 0 0 0 0 0 0 0 0 0 0 0 0 0 0 0 0 0 0 0 0 0 0 0 0 0 0 0
0 0 0 0 0 0 0 0 0 0 0 0 0 0 0 0 0 0 0 0 0 0 0 0 0 0 0 0 0 0 0 0 0 0 0 0 0 0 0 0 0 0 0
0 0 0 0 0 0 0 0 0 0 0 0 0 0 0 0 0 0 0 0 0 0 0 0 0 0 0 0 0 0 0 0 0 0 0 0 0 0 0 0 0 0 0
0 0 0 0 0 0 0 0 0 0 0 0 0 0 0 0 0 0 0 0 0 0 0 0 0 0 0 0 0 0 0 0 0 0 0 0 0 0 0 0 0 0 0
0 0 0 0 0 0 0 0 0 0 0 0 0 0 0 0 0 0 0 0 0 0 0 0 0 0 0 0 0 0 0 0 0 0 0 0 0 0 0 0 0 0 0
0 0 0 0 0 0 0 0 0 0 0 0 0 0 0 0 0 0 0 0 0 0 0 0 0 0 0 0 0 0 0 0 0 0 0 0 0 0 0 0 0 0 0
0 0 0 0 0 0 0 0 0 0 0 0 0 0 0 0 0 0 0 0 0 0 0 0 0 0 0 0 0 0 0 0 0 0 0 0 0 0 0 0 0 0 0
0 0 0 0 0 0 0 0 0 0 0 0 0 0 0 0 0 0 0 0 0 0 0 0 0 0 0 0 0 0 0 0 0 0 0 0 0 0 0 0 0 0 0
0 0 0 0 0 0 0 0 0 0 0 0 0 0 0 0 0 0 0 0 0 0 0 0 0 0 0 0 0 0 0 0 0 0 0 0 0 0 0 0 0 0 0
0 0 0 0 0 0 0 0 0 0 0 0 0 0 0 0 0 0 0 0 0 0 0 0 0 0 0 0 0 0 0 0 0 0 0 0 0 0 0 0 0 0 0
0 0 0 0 0 0 0 0 0 0 0 0 0 0 0 0 0 0 0 0 0 0 0 0 0 0 0 0 0 0 0 0 0 0 0 0 0 0 0 0 0 0 0
0 0 0 0 0 0 0 0 0 0 0 0 0 0 0 0 0 0 0 0 0 0 0 0 0 0 0 0 0 0 0 0 0 0 0 0 0 0 0 0 0 0 0
0 0 0 0 0 0 0 0 0 0 0 0 0 0 0 0 0 0 0 0 0 0 0 0 0 0 0 0 0 0 0 0 0 0 0 0 0 0 0 0 0 0 0
0 0 0 0 0 0 0 0 0 0 0 0 0 0 0 0 0 0 0 0 0 0 0 0 0 0 0 0 0 0 0 0 0 0 0 0 0 0 0 0 0 0 0
0 0 0 0 0 0 0 0 0 0 0 0 0 0 0 0 0 0 0 0 0 0 0 0 0 0 0 0 0 0 0 0 0 0 0 0 0 0 0 0 0 0 0
0 0 0 0 0 0 0 0 0 0 0 0 0 0 0 0 0 0 0 0 0 0 0 0 0 0 0 0 0 0 0 0 0 0 0 0 0 0 0 0 0 0 0
0 0 0 0 0 0 0 0 0 0 0 0 0 0 0 0 0 0 0 0 0 0 0 0 0 0 0 0 0 0 0 0 0 0 0 0 0 0 0 0 0 0 0
0 0 0 0 0 0 0 0 0 0 0 0 0 0 0 0 0 0 0 0 0 0 0 0 0 0 0 0 0 0 0 0 0 0 0 0 0 0 0 0 0 0 0
Wind_Speed
8 8 8 9 9 9 9 10 11 11 12 13 14 15 15 15 13 12 11 12 11 11 10 9 10 10 8 7 7 7 6 6 8 7 6 7 8 9 9 9 8 7 7
7 8 8 9 9 9 10 11 11 12 12 13 14 15 15 16 14 14 13 12 11 11 11 10 10 8 9 7 6 6 6 6 6 9 7 6 6 8 9 9 8 7 6
7 8 8 9 9 10 10 11 11 12 12 13 14 15 16 16 15 13 11 11 11 10 10 9 9 9 8 6 6 5 5 5 5 5 6 5 4 6 8 7 7 5 6
7 8 8 9 9 10 10 11 11 11 12 13 14 15 16 16 15 11 11 11 9 9 7 7 7 7 7 7 5 4 4 5 4 4 5 5 5 6 6 6 7 6 6
7 8 8 8 9 9 10 10 11 11 13 13 14 15 16 15 14 11 9 12 11 10 8 7 7 10 11 7 5 4 4 4 4 4 5 5 5 7 7 6 7 7 5
7 7 8 8 9 9 9 9 10 11 11 12 13 14 16 15 23 25 17 12 13 13 11 9 9 10 15 16 16 16 13 8 6 5 5 6 6 7 6 7 7 6 4
7 7 8 8 9 9 10 10 10 10 11 12 12 13 15 18 27 25 25 13 12 12 12 10 9 11 12 10 14 16 15 17 14 7 5 6 7 7 8 8 7 6 5
7 7 8 8 9 9 9 9 9 8 9 9 10 12 13 18 26 24 23 13 10 12 12 11 10 10 11 12 9 9 8 9 11 7 5 6 7 7 6 6 7 7 7
7 7 8 8 9 9 9 9 8 7 8 8 10 11 12 16 23 23 19 8 10 11 12 13 12 9 19 19 12 10 9 8 13 15 15 13 15 16 12 6 6 5 3
7 8 8 8 8 9 9 8 6 7 8 10 11 10 11 12 20 22 17 6 8 9 9 11 17 17 20 19 10 9 9 8 10 11 11 12 10 11 14 6 5 4 3
7 8 8 8 8 8 7 6 8 8 9 9 10 10 9 11 16 20 19 6 7 8 8 8 9 20 20 20 16 9 13 11 8 8 7 7 7 6 7 6 4 3 4
7 8 8 8 7 8 7 8 8 8 8 8 8 9 7 8 12 15 18 15 11 6 7 6 8 19 19 19 14 16 19 14 7 7 8 8 8 8 8 8 6 5 5
7 8 8 9 7 7 7 8 8 7 7 8 7 7 7 7 8 15 14 13 13 6 5 12 14 16 15 12 17 19 14 9 8 8 8 8 8 8 8 7 6 5 4
7 8 8 8 8 7 6 6 7 7 8 8 7 7 7 7 7 6 5 4 6 5 4 8 12 13 11 12 12 10 8 8 8 7 8 8 8 8 8 8 7 6 4
7 7 8 8 7 7 7 6 8 7 10 11 7 6 8 8 11 16 9 4 2 2 2 2 3 4 5 6 6 6 7 7 8 8 8 8 9 9 8 8 6 6 5
6 7 6 6 7 7 8 9 12 13 17 17 16 15 11 16 20 18 16 13 12 10 4 2 3 3 4 5 5 6 6 7 7 7 7 8 8 9 9 8 7 7 6
6 7 6 7 7 7 7 8 10 12 16 16 18 19 19 21 21 19 17 14 12 10 2 2 3 3 3 3 3 4 4 5 5 6 7 7 8 8 8 8 8 8 7
5 7 7 5 5 6 6 7 8 9 11 10 13 18 21 22 21 20 18 12 7 5 3 4 4 4 3 3 3 3 3 4 4 5 6 6 7 7 8 8 8 8 7
5 4 5 4 4 5 6 6 7 8 9 10 9 12 18 19 18 18 16 6 6 6 5 4 4 4 3 3 2 2 2 3 3 4 5 6 6 6 7 7 7 12 9
4 8 7 4 4 5 5 6 7 7 8 9 9 10 11 11 9 10 9 7 7 6 6 5 5 4 3 3 3 2 1 2 3 3 4 5 5 5 6 7 7 7 7
3 5 8 5 4 5 5 5 6 6 7 8 8 12 18 10 9 11 10 9 9 8 7 6 5 4 3 3 3 3 2 1 1 2 2 3 4 4 5 5 6 7 6
2 3 3 3 4 4 4 4 5 6 7 9 9 11 18 10 9 10 10 10 10 9 7 6 5 4 4 4 4 4 3 2 1 1 1 2 3 4 4 5 6 6 6
2 3 3 3 3 6 6 5 5 6 7 8 8 9 9 9 10 10 11 11 11 10 8 6 6 4 3 4 5 5 5 4 3 3 1 0 1 3 3 4 6 6 7
3 3 3 3 3 3 4 5 5 6 7 7 8 8 9 9 10 12 11 11 11 11 9 7 6 6 6 4 4 5 5 5 4 4 4 3 1 1 2 3 4 6 6
3 3 3 3 3 3 4 5 5 6 7 8 8 8 9 10 10 11 11 11 13 12 12 10 6 6 6 6 5 6 10 12 9 6 4 3 3 2 2 3 3 4 5
4 3 3 2 3 3 3 4 5 6 6 7 8 8 9 10 10 11 11 11 13 12 11 9 9 8 6 4 6 9 12 14 13 12 7 4 4 3 2 2 3 4 5
Wind_Direction
319 321 323 321 321 321 321 320 320 318 320 321 319 318 316 313 310 304 297 293 289 288 287 285 284 285 283 280 277 274 276 278 282 290 288 298 306 317 321 318 310 310 312
317 321 322 321 322 323 322 321 322 322 322 322 322 321 321 321 317 311 302 299 293 289 289 288 289 292 291 287 283 282 282 279 281 290 297 303 309 317 316 313 316 315 312
320 322 321 321 323 323 322 323 325 325 324 326 327 326 325 325 324 320 312 302 295 290 290 289 292 294 293 293 296 294 289 293 284 289 298 304 305 321 325 320 319 317 318
325 322 321 322 322 321 323 325 327 327 327 329 329 328 328 328 328 330 334 331 323 316 307 302 304 306 299 293 301 312 311 309 314 317 319 324 329 331 334 338 334 335 324
323 321 319 318 319 321 324 325 326 329 332 330 331 332 334 333 336 355 360 355 354 351 348 343 342 350 354 4 14 5 356 354 353 351 346 343 349 349 348 336 328 323 306
315 313 315 322 324 325 325 327 328 330 330 331 334 335 338 340 351 13 22 6 3 4 5 1 3 13 20 23 26 26 26 24 17 7 356 348 341 339 334 331 329 331 323
311 312 317 320 323 324 326 329 329 327 328 331 332 335 338 340 356 13 21 14 7 6 6 7 12 18 33 28 24 26 21 21 23 14 356 345 334 337 333 328 324 315 298
309 311 315 319 319 319 321 324 323 320 325 325 326 332 336 340 354 12 20 13 8 8 7 7 11 13 29 34 21 18 15 9 9 8 357 344 341 336 335 319 306 298 279
311 313 314 315 315 317 320 319 316 317 319 322 327 330 334 335 348 8 24 5 9 6 5 7 10 14 21 29 22 12 11 5 3 6 6 4 1 357 1 345 333 327 312
308 309 308 309 311 311 310 310 310 314 318 325 326 327 327 327 342 359 19 15 10 4 2 360 5 16 16 22 22 7 9 1 353 350 354 354 352 349 359 354 330 322 310
305 306 306 307 306 302 306 306 311 317 321 318 316 316 316 327 340 350 5 20 17 4 359 354 353 10 14 16 18 13 11 8 350 346 344 345 346 345 341 334 319 298 288
307 308 306 305 305 317 311 309 310 312 314 311 310 313 314 318 335 342 356 5 16 11 351 341 353 10 13 13 15 14 13 10 357 355 354 353 348 344 336 326 314 293 264
313 310 307 308 305 306 306 309 313 311 310 311 310 315 317 320 321 333 341 351 0 10 352 359 5 11 12 7 10 14 11 4 1 359 354 346 338 329 329 329 326 315 290
309 309 311 312 312 312 311 312 313 311 310 309 317 318 314 311 307 303 293 308 339 354 353 352 1 5 11 7 8 6 3 2 4 353 345 338 337 342 350 349 346 345 350
308 309 313 315 314 317 320 314 315 306 315 328 325 316 320 316 316 330 339 320 296 306 350 344 343 347 355 356 357 358 358 359 360 351 350 348 350 353 353 352 353 358 13
310 316 315 315 322 324 322 322 325 330 332 337 337 337 328 327 332 340 340 338 336 336 355 326 317 325 334 341 346 348 352 356 352 349 352 353 353 354 355 357 4 10 17
297 308 309 318 323 324 326 327 326 330 335 340 342 341 339 338 345 347 346 346 340 341 342 293 291 295 302 314 325 333 337 341 345 350 353 353 353 355 360 4 8 12 16
293 305 312 307 314 317 318 320 323 327 329 330 336 339 340 343 347 349 350 351 335 332 291 282 281 279 277 285 300 316 328 339 348 352 352 353 354 358 4 7 10 16 17
299 297 300 305 313 315 316 320 325 326 326 325 328 334 339 341 345 347 350 340 316 310 297 283 275 273 265 259 269 287 310 331 345 347 351 353 354 359 5 7 11 21 28
290 314 326 326 322 321 319 325 329 329 328 328 330 330 329 340 342 340 341 330 321 309 299 286 276 267 256 239 238 250 283 318 342 349 348 351 352 360 5 8 12 18 24
281 305 325 328 314 311 312 321 323 324 325 327 327 328 341 346 337 334 334 332 328 320 309 296 280 268 247 222 212 218 229 260 303 336 347 351 355 2 3 9 15 21 28
263 282 295 301 304 310 317 321 320 319 321 325 326 329 339 343 333 332 331 330 327 321 312 302 287 267 242 218 204 200 206 218 225 260 340 355 2 7 11 17 22 26 31
241 274 291 299 302 321 332 321 320 321 322 323 325 331 334 334 331 330 329 327 325 323 319 308 297 281 251 220 203 194 197 203 197 180 166 81 24 20 21 25 27 34 40
221 253 277 295 306 314 317 319 321 323 325 324 326 329 330 329 327 327 326 325 325 323 320 314 302 288 267 234 205 195 195 193 177 170 163 146 115 55 39 36 37 38 42
210 235 257 276 296 307 313 317 319 322 325 325 327 329 327 326 325 325 324 324 324 324 321 317 308 300 278 243 212 198 201 200 188 165 152 146 136 114 84 58 54 53 53
207 223 240 255 272 287 299 308 314 318 319 322 324 323 322 322 322 322 323 324 326 325 323 320 313 309 297 253 214 210 207 200 193 178 156 146 145 139 124 94 83 73 70